Location: Newark
(3.0500°N, 36.0167°E)
Time: 08:47:45
(UTC+00:00)

A-11 Canister half - Pass Details

Date: 03 September 2019
Orbit: 1527 x 1682 km, 47.3° (Epoch: 23 September)

Event Time Altitude Azimuth Distance (km) Brightness Sun altitude
Rises 14:53:22 0° 319° (NW) 4,922 12.5 10.8°
Reaches altitude 10° 14:56:32 10° 319° (NW) 3,931 12.0 10.0°
Maximum altitude 15:06:40 85° 231° (SW) 1,663 9.4 7.5°
Drops below altitude 10° 15:16:34 10° 143° (SE) 3,847 10.7 5.0°
Sets 15:19:39 0° 142° (SE) 4,813 11.2 4.3°
